owner,sensor,date,latitude,longitude,vertical_datum,wind_speed,wind_to_direction,wind_speed_of_gust,qcFlag 
TABS,ioos:station:wmo:42047:1,2017-10-01T00:00:00Z,27.8966,-93.5973,4.0,5.275916982,41.8496787,6.15,'11111222,11111222,11111222' 
TABS,ioos:station:wmo:42047:1,2017-10-01T00:30:00Z,27.8966,-93.5973,4.0,5.44008272,43.28654112,6.3,'11111222,11111222,11111222' 
TABS,ioos:station:wmo:42047:1,2017-10-01T01:00:00Z,27.8966,-93.5973,4.0,5.623922119,49.39837938,6.41,'11111222,11111222,11111222' 
TABS,ioos:station:wmo:42047:1,2017-10-01T01:30:00Z,27.8966,-93.5973,4.0,5.788609505,37.70106199,6.67,'11111222,11111222,11111222' 
TABS,ioos:station:wmo:42047:1,2017-10-01T02:00:00Z,27.8966,-93.5973,4.0,5.295904078,38.40606325,6.16,'11111222,11111222,11111222' 
TABS,ioos:station:wmo:42047:1,2017-10-01T02:30:00Z,27.8966,-93.5973,4.0,5.844287809,36.30097702,6.88,'11111222,11111222,11111222' 
TABS,ioos:station:wmo:42047:1,2017-10-01T03:00:00Z,27.8966,-93.5973,4.0,5.446145426,41.79922942,6.64,'11111222,11111222,11111222' 
TABS,ioos:station:wmo:42047:1,2017-10-01T03:30:00Z,27.8966,-93.5973,4.0,5.258631001,41.14461973,6.07,'11111222,11111222,11111222' 
TABS,ioos:station:wmo:42047:1,2017-10-01T04:00:00Z,27.8966,-93.5973,4.0,5.07532265,47.63486273,6.06,'11111222,11111222,11111222' 
TABS,ioos:station:wmo:42047:1,2017-10-01T04:30:00Z,27.8966,-93.5973,4.0,4.854533963,37.71941225,5.77,'11111222,11111222,11111222' 
TABS,ioos:station:wmo:42047:1,2017-10-01T05:00:00Z,27.8966,-93.5973,4.0,4.989639266,40.04050624,6.08,'11111222,11111222,11111222' 
TABS,ioos:station:wmo:42047:1,2017-10-01T05:30:00Z,27.8966,-93.5973,4.0,5.148397809,37.58186445,6.3,'11111222,11111222,11111222' 
TABS,ioos:station:wmo:42047:1,2017-10-01T06:00:00Z,27.8966,-93.5973,4.0,4.66854367,32.66857368,5.51,'11111222,11111222,11111222' 
TABS,ioos:station:wmo:42047:1,2017-10-01T06:30:00Z,27.8966,-93.5973,4.0,4.590533738,29.63623353,5.47,'11111222,11111222,11111222' 
TABS,ioos:station:wmo:42047:1,2017-10-01T07:00:00Z,27.8966,-93.5973,4.0,4.945017695,23.35046471,6.04,'11111222,11111222,11111222' 
TABS,ioos:station:wmo:42047:1,2017-10-01T07:30:00Z,27.8966,-93.5973,4.0,4.443422105,23.33377625,5.44,'11111222,11111222,11111222' 
TABS,ioos:station:wmo:42047:1,2017-10-01T08:00:00Z,27.8966,-93.5973,4.0,4.712218161,19.20371814,5.41,'11111222,11111222,11111222' 
TABS,ioos:station:wmo:42047:1,2017-10-01T08:30:00Z,27.8966,-93.5973,4.0,5.119775386,18.68242041,6.27,'11111222,11111222,11111222' 
TABS,ioos:station:wmo:42047:1,2017-10-01T09:00:00Z,27.8966,-93.5973,4.0,5.088978286,24.24801244,5.93,'11111222,11111222,11111222' 
TABS,ioos:station:wmo:42047:1,2017-10-01T09:30:00Z,27.8966,-93.5973,4.0,5.017808286,26.25838769,5.87,'11111222,11111222,11111222' 
TABS,ioos:station:wmo:42047:1,2017-10-01T10:00:00Z,27.8966,-93.5973,4.0,4.554119015,28.02780709,5.34,'11111222,11111222,11111222' 
TABS,ioos:station:wmo:42047:1,2017-10-01T10:30:00Z,27.8966,-93.5973,4.0,4.494707999,38.85858806,5.25,'11111222,11111222,11111222' 
TABS,ioos:station:wmo:42047:1,2017-10-01T11:00:00Z,27.8966,-93.5973,4.0,5.211237857,42.04410958,6.25,'11111222,11111222,11111222' 
TABS,ioos:station:wmo:42047:1,2017-10-01T11:30:00Z,27.8966,-93.5973,4.0,5.161879503,49.24186719,5.85,'11111222,11111222,11111222' 
TABS,ioos:station:wmo:42047:1,2017-10-01T12:00:00Z,27.8966,-93.5973,4.0,5.070512795,57.15579928,6.19,'11111222,11111222,11111222' 
TABS,ioos:station:wmo:42047:1,2017-10-01T12:30:00Z,27.8966,-93.5973,4.0,4.623613306,56.82513412,6.11,'11111222,11111222,11111222' 
TABS,ioos:station:wmo:42047:1,2017-10-01T13:00:00Z,27.8966,-93.5973,4.0,4.661544808,54.60486601,5.85,'11111222,11111222,11111222' 
TABS,ioos:station:wmo:42047:1,2017-10-01T13:30:00Z,27.8966,-93.5973,4.0,3.591462098,62.64976726,4.36,'11111222,11111222,11111222' 
TABS,ioos:station:wmo:42047:1,2017-10-01T14:00:00Z,27.8966,-93.5973,4.0,3.517740752,67.07907102,4.23,'11111222,11111222,11111222' 
TABS,ioos:station:wmo:42047:1,2017-10-01T14:30:00Z,27.8966,-93.5973,4.0,4.579617888,73.89955354,5.7,'11111222,11111222,11111222' 
TABS,ioos:station:wmo:42047:1,2017-10-01T15:00:00Z,27.8966,-93.5973,4.0,4.398920322,78.45977647,5.36,'11111222,11111222,11111222' 
TABS,ioos:station:wmo:42047:1,2017-10-01T15:30:00Z,27.8966,-93.5973,4.0,4.289638679,84.51493781,5.21,'11111222,11111222,11111222' 
TABS,ioos:station:wmo:42047:1,2017-10-01T16:00:00Z,27.8966,-93.5973,4.0,4.041237434,88.58165957,4.74,'11111222,11111222,11111222' 
TABS,ioos:station:wmo:42047:1,2017-10-01T16:30:00Z,27.8966,-93.5973,4.0,4.455928635,83.81559808,5.24,'11111222,11111222,11111222' 
TABS,ioos:station:wmo:42047:1,2017-10-01T17:00:00Z,27.8966,-93.5973,4.0,3.46134367,94.64033266,4.1,'11111222,11111222,11111222' 
TABS,ioos:station:wmo:42047:1,2017-10-01T17:30:00Z,27.8966,-93.5973,4.0,3.373796082,87.28135224,4.31,'11111222,11111222,11111222' 
TABS,ioos:station:wmo:42047:1,2017-10-01T18:00:00Z,27.8966,-93.5973,4.0,3.200062499,90.35851404,4.15,'11111222,11111222,11111222' 
TABS,ioos:station:wmo:42047:1,2017-10-01T18:30:00Z,27.8966,-93.5973,4.0,4.012106679,91.85723542,5.12,'11111222,11111222,11111222' 
TABS,ioos:station:wmo:42047:1,2017-10-01T19:00:00Z,27.8966,-93.5973,4.0,3.528526605,100.4504791,4.14,'11111222,11111222,11111222' 
TABS,ioos:station:wmo:42047:1,2017-10-01T19:30:00Z,27.8966,-93.5973,4.0,3.514327816,107.0431772,4.21,'11111222,11111222,11111222' 
TABS,ioos:station:wmo:42047:1,2017-10-01T20:00:00Z,27.8966,-93.5973,4.0,2.875639059,116.2089875,3.76,'11111222,11111222,11111222' 
TABS,ioos:station:wmo:42047:1,2017-10-01T20:30:00Z,27.8966,-93.5973,4.0,3.375159256,101.2770349,4.2,'11111222,11111222,11111222' 
TABS,ioos:station:wmo:42047:1,2017-10-01T21:00:00Z,27.8966,-93.5973,4.0,2.768122107,106.7987534,3.52,'11111222,11111222,11111222' 
TABS,ioos:station:wmo:42047:1,2017-10-01T21:30:00Z,27.8966,-93.5973,4.0,2.926380016,99.04427709,4.0,'11111222,11111222,11111222' 
TABS,ioos:station:wmo:42047:1,2017-10-01T22:00:00Z,27.8966,-93.5973,4.0,3.100064515,103.050419,3.88,'11111222,11111222,11111222' 
TABS,ioos:station:wmo:42047:1,2017-10-01T22:30:00Z,27.8966,-93.5973,4.0,3.827923719,95.54717164,4.56,'11111222,11111222,11111222' 
TABS,ioos:station:wmo:42047:1,2017-10-01T23:00:00Z,27.8966,-93.5973,4.0,3.63352446,87.47578474,4.72,'11111222,11111222,11111222' 
TABS,ioos:station:wmo:42047:1,2017-10-01T23:30:00Z,27.8966,-93.5973,4.0,3.789036817,79.04554205,4.59,'11111222,11111222,11111222' 
TABS,ioos:station:wmo:42047:1,2017-10-02T00:00:00Z,27.8966,-93.5973,4.0,4.270562024,83.14083665,4.96,'11111222,11111222,11111222' 
TABS,ioos:station:wmo:42047:1,2017-10-02T00:30:00Z,27.8966,-93.5973,4.0,4.613133425,87.88768143,5.44,'11111222,11111222,11111222' 
TABS,ioos:station:wmo:42047:1,2017-10-02T01:00:00Z,27.8966,-93.5973,4.0,4.999849998,72.18073184,6.16,'11111222,11111222,11111222' 
TABS,ioos:station:wmo:42047:1,2017-10-02T01:30:00Z,27.8966,-93.5973,4.0,6.109828148,74.23455689,7.32,'11111222,11111222,11111222' 
TABS,ioos:station:wmo:42047:1,2017-10-02T02:00:00Z,27.8966,-93.5973,4.0,6.051784861,82.49879863,7.11,'11111222,11111222,11111222' 
TABS,ioos:station:wmo:42047:1,2017-10-02T02:30:00Z,27.8966,-93.5973,4.0,5.716379973,80.02645992,7.0,'11111222,11111222,11111222' 
TABS,ioos:station:wmo:42047:1,2017-10-02T03:00:00Z,27.8966,-93.5973,4.0,6.069934102,79.07842591,6.97,'11111222,11111222,11111222' 
TABS,ioos:station:wmo:42047:1,2017-10-02T03:30:00Z,27.8966,-93.5973,4.0,6.380446693,80.89158922,7.79,'11111222,11111222,11111222' 
TABS,ioos:station:wmo:42047:1,2017-10-02T04:00:00Z,27.8966,-93.5973,4.0,6.399320276,78.91794135,7.73,'11111222,11111222,11111222' 
TABS,ioos:station:wmo:42047:1,2017-10-02T04:30:00Z,27.8966,-93.5973,4.0,8.080377466,94.97015002,9.4,'11111222,11111222,11111222' 
TABS,ioos:station:wmo:42047:1,2017-10-02T05:00:00Z,27.8966,-93.5973,4.0,7.501213235,93.13363767,8.78,'11111222,11111222,11111222' 
TABS,ioos:station:wmo:42047:1,2017-10-02T05:30:00Z,27.8966,-93.5973,4.0,6.724767654,98.55223115,8.12,'11111222,11111222,11111222' 
TABS,ioos:station:wmo:42047:1,2017-10-02T06:00:00Z,27.8966,-93.5973,4.0,7.467061001,98.23901861,8.98,'11111222,11111222,11111222' 
TABS,ioos:station:wmo:42047:1,2017-10-02T06:30:00Z,27.8966,-93.5973,4.0,7.153048301,99.25202778,8.56,'11111222,11111222,11111222' 
TABS,ioos:station:wmo:42047:1,2017-10-02T07:00:00Z,27.8966,-93.5973,4.0,7.022364274,94.57433148,8.46,'11111222,11111222,11111222' 
TABS,ioos:station:wmo:42047:1,2017-10-02T07:30:00Z,27.8966,-93.5973,4.0,6.398515453,92.95672466,7.69,'11111222,11111222,11111222' 
TABS,ioos:station:wmo:42047:1,2017-10-02T08:00:00Z,27.8966,-93.5973,4.0,6.50975422,97.76953278,7.73,'11111222,11111222,11111222' 
TABS,ioos:station:wmo:42047:1,2017-10-02T08:30:00Z,27.8966,-93.5973,4.0,5.880416652,89.31752028,7.04,'11111222,11111222,11111222' 
TABS,ioos:station:wmo:42047:1,2017-10-02T09:00:00Z,27.8966,-93.5973,4.0,5.773127402,88.11357553,7.01,'11111222,11111222,11111222' 
TABS,ioos:station:wmo:42047:1,2017-10-02T09:30:00Z,27.8966,-93.5973,4.0,5.696455038,81.92639309,6.58,'11111222,11111222,11111222' 
TABS,ioos:station:wmo:42047:1,2017-10-02T10:00:00Z,27.8966,-93.5973,4.0,5.702850165,84.86883423,6.76,'11111222,11111222,11111222' 
TABS,ioos:station:wmo:42047:1,2017-10-02T10:30:00Z,27.8966,-93.5973,4.0,6.659557042,81.71132171,7.86,'11111222,11111222,11111222' 
TABS,ioos:station:wmo:42047:1,2017-10-02T11:00:00Z,27.8966,-93.5973,4.0,6.835202996,73.68576481,7.93,'11111222,11111222,11111222' 
TABS,ioos:station:wmo:42047:1,2017-10-02T11:30:00Z,27.8966,-93.5973,4.0,6.392472135,79.72682367,7.71,'11111222,11111222,11111222' 
TABS,ioos:station:wmo:42047:1,2017-10-02T12:00:00Z,27.8966,-93.5973,4.0,5.224720088,67.01703443,6.49,'11111222,11111222,11111222' 
TABS,ioos:station:wmo:42047:1,2017-10-02T12:30:00Z,27.8966,-93.5973,4.0,5.047226961,58.86067946,5.84,'11111222,11111222,11111222' 
TABS,ioos:station:wmo:42047:1,2017-10-02T13:00:00Z,27.8966,-93.5973,4.0,5.908172306,50.97637272,7.23,'11111222,11111222,11111222' 
TABS,ioos:station:wmo:42047:1,2017-10-02T13:30:00Z,27.8966,-93.5973,4.0,6.378722443,53.99210172,7.56,'11111222,11111222,11111222' 
TABS,ioos:station:wmo:42047:1,2017-10-02T14:00:00Z,27.8966,-93.5973,4.0,5.164223078,46.72587992,6.32,'11111222,11111222,11111222' 
TABS,ioos:station:wmo:42047:1,2017-10-02T14:30:00Z,27.8966,-93.5973,4.0,4.036000496,53.15815994,4.88,'11111222,11111222,11111222' 
TABS,ioos:station:wmo:42047:1,2017-10-02T15:00:00Z,27.8966,-93.5973,4.0,4.582062854,36.56949558,5.39,'11111222,11111222,11111222' 
TABS,ioos:station:wmo:42047:1,2017-10-02T15:30:00Z,27.8966,-93.5973,4.0,5.714621597,24.50177107,6.97,'11111222,11111222,11111222' 
TABS,ioos:station:wmo:42047:1,2017-10-02T16:00:00Z,27.8966,-93.5973,4.0,5.259600745,16.22945433,6.06,'11111222,11111222,11111222' 
TABS,ioos:station:wmo:42047:1,2017-10-02T16:30:00Z,27.8966,-93.5973,4.0,3.810209968,0.601296529,4.79,'11111222,11111222,11111222' 
TABS,ioos:station:wmo:42047:1,2017-10-02T17:00:00Z,27.8966,-93.5973,4.0,1.992786993,10.40747652,2.56,'11111222,11111222,11111222' 
TABS,ioos:station:wmo:42047:1,2017-10-02T17:30:00Z,27.8966,-93.5973,4.0,1.61644672,81.81936833,2.67,'11111222,11111222,11111222' 
TABS,ioos:station:wmo:42047:1,2017-10-02T18:00:00Z,27.8966,-93.5973,4.0,2.338054747,166.1423052,3.09,'11111222,11111222,11111222' 
TABS,ioos:station:wmo:42047:1,2017-10-02T18:30:00Z,27.8966,-93.5973,4.0,3.011610865,199.9995243,4.45,'11111222,11111222,11111222' 
TABS,ioos:station:wmo:42047:1,2017-10-02T19:00:00Z,27.8966,-93.5973,4.0,4.908054604,195.4805433,5.96,'11111222,11111222,11111222' 
TABS,ioos:station:wmo:42047:1,2017-10-02T19:30:00Z,27.8966,-93.5973,4.0,4.745734927,203.8645765,5.83,'11111222,11111222,11111222' 
TABS,ioos:station:wmo:42047:1,2017-10-02T20:00:00Z,27.8966,-93.5973,4.0,3.866949702,195.294279,4.62,'11111222,11111222,11111222' 
TABS,ioos:station:wmo:42047:1,2017-10-02T20:30:00Z,27.8966,-93.5973,4.0,3.31834296,191.6487393,4.01,'11111222,11111222,11111222' 
TABS,ioos:station:wmo:42047:1,2017-10-02T21:00:00Z,27.8966,-93.5973,4.0,2.983035367,172.8752108,3.79,'11111222,11111222,11111222' 
TABS,ioos:station:wmo:42047:1,2017-10-02T21:30:00Z,27.8966,-93.5973,4.0,2.860629301,178.7983802,3.67,'11111222,11111222,11111222' 
TABS,ioos:station:wmo:42047:1,2017-10-02T22:00:00Z,27.8966,-93.5973,4.0,2.553918558,156.9489634,3.36,'11111222,11111222,11111222' 
TABS,ioos:station:wmo:42047:1,2017-10-02T22:30:00Z,27.8966,-93.5973,4.0,2.793152341,135.4354641,3.7,'11111222,11111222,11111222' 
TABS,ioos:station:wmo:42047:1,2017-10-02T23:00:00Z,27.8966,-93.5973,4.0,2.387571988,131.4345745,3.14,'11111222,11111222,11111222' 
TABS,ioos:station:wmo:42047:1,2017-10-02T23:30:00Z,27.8966,-93.5973,4.0,3.287095983,116.1756497,4.2,'11111222,11111222,11111222' 
TABS,ioos:station:wmo:42047:1,2017-10-03T00:00:00Z,27.8966,-93.5973,4.0,3.210140184,105.7251299,4.05,'11111222,11111222,11111222' 
TABS,ioos:station:wmo:42047:1,2017-10-03T00:30:00Z,27.8966,-93.5973,4.0,3.410058651,90.33646191,4.1,'11111222,11111222,11111222' 
TABS,ioos:station:wmo:42047:1,2017-10-03T01:00:00Z,27.8966,-93.5973,4.0,4.454974747,64.46994079,5.24,'11111222,11111222,11111222' 
TABS,ioos:station:wmo:42047:1,2017-10-03T01:30:00Z,27.8966,-93.5973,4.0,5.731265131,76.37556022,6.83,'11111222,11111222,11111222' 
TABS,ioos:station:wmo:42047:1,2017-10-03T02:00:00Z,27.8966,-93.5973,4.0,7.390493894,94.26830424,8.79,'11111222,11111222,11111222' 
TABS,ioos:station:wmo:42047:1,2017-10-03T02:30:00Z,27.8966,-93.5973,4.0,7.890057034,90.21827403,9.19,'11111222,11111222,11111222' 
TABS,ioos:station:wmo:42047:1,2017-10-03T03:00:00Z,27.8966,-93.5973,4.0,7.753657202,93.40158782,9.01,'11111222,11111222,11111222' 
TABS,ioos:station:wmo:42047:1,2017-10-03T03:30:00Z,27.8966,-93.5973,4.0,8.472378651,95.01115917,9.86,'11111222,11111222,11111222' 
TABS,ioos:station:wmo:42047:1,2017-10-03T04:00:00Z,27.8966,-93.5973,4.0,9.349331527,94.54012221,10.91,'11111222,11111222,11111222' 
TABS,ioos:station:wmo:42047:1,2017-10-03T04:30:00Z,27.8966,-93.5973,4.0,9.46599176,123.5393228,12.26,'11111222,11111222,11111222' 
TABS,ioos:station:wmo:42047:1,2017-10-03T05:00:00Z,27.8966,-93.5973,4.0,8.876581549,108.6598542,10.31,'11111222,11111222,11111222' 
TABS,ioos:station:wmo:42047:1,2017-10-03T05:30:00Z,27.8966,-93.5973,4.0,8.68891823,109.7074271,10.22,'11111222,11111222,11111222' 
TABS,ioos:station:wmo:42047:1,2017-10-03T06:00:00Z,27.8966,-93.5973,4.0,8.744855631,115.3932841,10.37,'11111222,11111222,11111222' 
TABS,ioos:station:wmo:42047:1,2017-10-03T06:30:00Z,27.8966,-93.5973,4.0,8.957371266,120.9750749,10.8,'11111222,11111222,11111222' 
TABS,ioos:station:wmo:42047:1,2017-10-03T07:00:00Z,27.8966,-93.5973,4.0,8.979320687,127.8529305,11.09,'11111222,11111222,11111222' 
TABS,ioos:station:wmo:42047:1,2017-10-03T07:30:00Z,27.8966,-93.5973,4.0,8.308579903,130.2650313,9.73,'11111222,11111222,11111222' 
TABS,ioos:station:wmo:42047:1,2017-10-03T08:00:00Z,27.8966,-93.5973,4.0,9.382989929,124.0968751,10.76,'11111222,11111222,11111222' 
TABS,ioos:station:wmo:42047:1,2017-10-03T08:30:00Z,27.8966,-93.5973,4.0,8.529067944,123.0382923,10.45,'11111222,11111222,11111222' 
TABS,ioos:station:wmo:42047:1,2017-10-03T09:00:00Z,27.8966,-93.5973,4.0,9.426356666,126.3718105,10.89,'11111222,11111222,11111222' 
TABS,ioos:station:wmo:42047:1,2017-10-03T09:30:00Z,27.8966,-93.5973,4.0,8.377457848,117.5136229,9.88,'11111222,11111222,11111222' 
TABS,ioos:station:wmo:42047:1,2017-10-03T10:00:00Z,27.8966,-93.5973,4.0,9.178028111,123.084404,10.91,'11111222,11111222,11111222' 
TABS,ioos:station:wmo:42047:1,2017-10-03T10:30:00Z,27.8966,-93.5973,4.0,8.395260568,122.2516939,10.03,'11111222,11111222,11111222' 
TABS,ioos:station:wmo:42047:1,2017-10-03T11:00:00Z,27.8966,-93.5973,4.0,8.564683298,121.1476708,9.65,'11111222,11111222,11111222' 
TABS,ioos:station:wmo:42047:1,2017-10-03T11:30:00Z,27.8966,-93.5973,4.0,8.522534834,122.3477888,9.92,'11111222,11111222,11111222' 
TABS,ioos:station:wmo:42047:1,2017-10-03T12:00:00Z,27.8966,-93.5973,4.0,8.08159019,114.5675348,9.5,'11111222,11111222,11111222' 
TABS,ioos:station:wmo:42047:1,2017-10-03T12:30:00Z,27.8966,-93.5973,4.0,9.740395269,116.3286525,11.58,'11111222,11111222,11111222' 
TABS,ioos:station:wmo:42047:1,2017-10-03T13:00:00Z,27.8966,-93.5973,4.0,8.811520868,114.4712255,11.11,'11111222,11111222,11111222' 
TABS,ioos:station:wmo:42047:1,2017-10-03T13:30:00Z,27.8966,-93.5973,4.0,10.98464838,120.6510172,13.62,'11111222,11111222,11111222' 
TABS,ioos:station:wmo:42047:1,2017-10-03T14:00:00Z,27.8966,-93.5973,4.0,8.353903279,129.0243238,10.28,'11111222,11111222,11111222' 
TABS,ioos:station:wmo:42047:1,2017-10-03T14:30:00Z,27.8966,-93.5973,4.0,9.562055218,120.1317067,11.39,'11111222,11111222,11111222' 
TABS,ioos:station:wmo:42047:1,2017-10-03T15:00:00Z,27.8966,-93.5973,4.0,8.148938581,117.3200839,9.38,'11111222,11111222,11111222' 
TABS,ioos:station:wmo:42047:1,2017-10-03T15:30:00Z,27.8966,-93.5973,4.0,9.163476415,116.7891107,11.05,'11111222,11111222,11111222' 
TABS,ioos:station:wmo:42047:1,2017-10-03T16:00:00Z,27.8966,-93.5973,4.0,9.577494453,113.2460882,11.16,'11111222,11111222,11111222' 
TABS,ioos:station:wmo:42047:1,2017-10-03T16:30:00Z,27.8966,-93.5973,4.0,9.047369784,108.6956686,10.91,'11111222,11111222,11111222' 
TABS,ioos:station:wmo:42047:1,2017-10-03T17:00:00Z,27.8966,-93.5973,4.0,7.961438312,102.2559933,8.94,'11111222,11111222,11111222' 
TABS,ioos:station:wmo:42047:1,2017-10-03T17:30:00Z,27.8966,-93.5973,4.0,7.700006494,102.7551846,9.0,'11111222,11111222,11111222' 
TABS,ioos:station:wmo:42047:1,2017-10-03T18:00:00Z,27.8966,-93.5973,4.0,8.73043527,102.3014131,10.38,'11111222,11111222,11111222' 
TABS,ioos:station:wmo:42047:1,2017-10-03T18:30:00Z,27.8966,-93.5973,4.0,9.156445817,109.523714,10.67,'11111222,11111222,11111222' 
TABS,ioos:station:wmo:42047:1,2017-10-03T19:00:00Z,27.8966,-93.5973,4.0,8.351886015,102.3059707,9.65,'11111222,11111222,11111222' 
TABS,ioos:station:wmo:42047:1,2017-10-03T19:30:00Z,27.8966,-93.5973,4.0,8.197865576,100.8991212,11.01,'11111222,11111222,11111222' 
TABS,ioos:station:wmo:42047:1,2017-10-03T20:00:00Z,27.8966,-93.5973,4.0,6.966039047,87.61364063,8.65,'11111222,11111222,11111222' 
TABS,ioos:station:wmo:42047:1,2017-10-03T20:30:00Z,27.8966,-93.5973,4.0,9.280915903,92.77958128,10.76,'11111222,11111222,11111222' 
TABS,ioos:station:wmo:42047:1,2017-10-03T21:00:00Z,27.8966,-93.5973,4.0,9.953260772,98.26075842,11.68,'11111222,11111222,11111222' 
TABS,ioos:station:wmo:42047:1,2017-10-03T21:30:00Z,27.8966,-93.5973,4.0,9.784278205,101.1380615,13.41,'11111222,11111222,11111222' 
TABS,ioos:station:wmo:42047:1,2017-10-03T22:00:00Z,27.8966,-93.5973,4.0,10.12765027,100.1230799,11.63,'11111222,11111222,11111222' 
TABS,ioos:station:wmo:42047:1,2017-10-03T22:30:00Z,27.8966,-93.5973,4.0,10.43450526,103.4106929,12.23,'11111222,11111222,11111222' 
TABS,ioos:station:wmo:42047:1,2017-10-03T23:00:00Z,27.8966,-93.5973,4.0,10.66997657,96.56593662,12.69,'11111222,11111222,11111222' 
TABS,ioos:station:wmo:42047:1,2017-10-03T23:30:00Z,27.8966,-93.5973,4.0,10.29443539,96.41435319,12.69,'11111222,11111222,11111222' 
TABS,ioos:station:wmo:42047:1,2017-10-04T00:00:00Z,27.8966,-93.5973,4.0,10.22904199,97.97999759,12.27,'11111222,11111222,11111222' 
TABS,ioos:station:wmo:42047:1,2017-10-04T00:30:00Z,27.8966,-93.5973,4.0,10.0079968,92.2910256,11.99,'11111222,11111222,11111222' 
TABS,ioos:station:wmo:42047:1,2017-10-04T01:00:00Z,27.8966,-93.5973,4.0,9.937529874,86.59588396,11.54,'11111222,11111222,11111222' 
TABS,ioos:station:wmo:42047:1,2017-10-04T01:30:00Z,27.8966,-93.5973,4.0,10.31674852,94.83784442,12.54,'11111222,11111222,11111222' 
TABS,ioos:station:wmo:42047:1,2017-10-04T02:00:00Z,27.8966,-93.5973,4.0,10.17979371,96.71353016,11.62,'11111222,11111222,11111222' 
TABS,ioos:station:wmo:42047:1,2017-10-04T02:30:00Z,27.8966,-93.5973,4.0,9.891865345,97.37687323,11.86,'11111222,11111222,11111222' 
TABS,ioos:station:wmo:42047:1,2017-10-04T03:00:00Z,27.8966,-93.5973,4.0,10.52762556,95.99801807,12.58,'11111222,11111222,11111222' 
TABS,ioos:station:wmo:42047:1,2017-10-04T03:30:00Z,27.8966,-93.5973,4.0,10.59268616,95.14586705,12.77,'11111222,11111222,11111222' 
TABS,ioos:station:wmo:42047:1,2017-10-04T04:00:00Z,27.8966,-93.5973,4.0,11.42966316,96.32952621,13.36,'11111222,11111222,11111222' 
TABS,ioos:station:wmo:42047:1,2017-10-04T04:30:00Z,27.8966,-93.5973,4.0,11.32162974,94.91534894,13.8,'11111222,11111222,11111222' 
TABS,ioos:station:wmo:42047:1,2017-10-04T05:00:00Z,27.8966,-93.5973,4.0,11.86324155,99.80414057,14.16,'11111222,11111222,11111222' 
TABS,ioos:station:wmo:42047:1,2017-10-04T05:30:00Z,27.8966,-93.5973,4.0,12.06398359,95.4227291,13.73,'11111222,11111222,11111222' 
TABS,ioos:station:wmo:42047:1,2017-10-04T06:00:00Z,27.8966,-93.5973,4.0,11.65680059,93.88641696,13.44,'11111222,11111222,11111222' 
TABS,ioos:station:wmo:42047:1,2017-10-04T06:30:00Z,27.8966,-93.5973,4.0,11.84692787,95.61956644,13.42,'11111222,11111222,11111222' 
TABS,ioos:station:wmo:42047:1,2017-10-04T07:00:00Z,27.8966,-93.5973,4.0,11.15075782,89.33158837,12.74,'11111222,11111222,11111222' 
TABS,ioos:station:wmo:42047:1,2017-10-04T07:30:00Z,27.8966,-93.5973,4.0,10.93592703,93.0930578,13.52,'11111222,11111222,11111222' 
TABS,ioos:station:wmo:42047:1,2017-10-04T08:00:00Z,27.8966,-93.5973,4.0,10.31570647,95.39598007,11.94,'11111222,11111222,11111222' 
TABS,ioos:station:wmo:42047:1,2017-10-04T08:30:00Z,27.8966,-93.5973,4.0,10.02335772,82.60515501,11.55,'11111222,11111222,11111222' 
TABS,ioos:station:wmo:42047:1,2017-10-04T09:00:00Z,27.8966,-93.5973,4.0,9.664884893,81.55091042,11.36,'11111222,11111222,11111222' 
TABS,ioos:station:wmo:42047:1,2017-10-04T09:30:00Z,27.8966,-93.5973,4.0,9.382307818,80.73806895,11.28,'11111222,11111222,11111222' 
TABS,ioos:station:wmo:42047:1,2017-10-04T10:00:00Z,27.8966,-93.5973,4.0,8.58083912,90.80170637,10.23,'11111222,11111222,11111222' 
TABS,ioos:station:wmo:42047:1,2017-10-04T10:30:00Z,27.8966,-93.5973,4.0,9.329962487,93.7491275,11.26,'11111222,11111222,11111222' 
TABS,ioos:station:wmo:42047:1,2017-10-04T11:00:00Z,27.8966,-93.5973,4.0,9.360261748,89.571094,11.39,'11111222,11111222,11111222' 
TABS,ioos:station:wmo:42047:1,2017-10-04T11:30:00Z,27.8966,-93.5973,4.0,8.97682572,87.76509656,10.8,'11111222,11111222,11111222' 
TABS,ioos:station:wmo:42047:1,2017-10-04T12:00:00Z,27.8966,-93.5973,4.0,8.690207132,89.60398828,10.65,'11111222,11111222,11111222' 
TABS,ioos:station:wmo:42047:1,2017-10-04T12:30:00Z,27.8966,-93.5973,4.0,9.82597069,85.09551831,12.54,'11111222,11111222,11111222' 
TABS,ioos:station:wmo:42047:1,2017-10-04T13:00:00Z,27.8966,-93.5973,4.0,9.846359733,85.80617989,11.49,'11111222,11111222,11111222' 
TABS,ioos:station:wmo:42047:1,2017-10-04T13:30:00Z,27.8966,-93.5973,4.0,9.877509808,85.00472472,11.72,'11111222,11111222,11111222' 
TABS,ioos:station:wmo:42047:1,2017-10-04T14:00:00Z,27.8966,-93.5973,4.0,9.509053581,80.92360271,11.19,'11111222,11111222,11111222' 
TABS,ioos:station:wmo:42047:1,2017-10-04T14:30:00Z,27.8966,-93.5973,4.0,9.809184472,76.79922483,11.93,'11111222,11111222,11111222' 
TABS,ioos:station:wmo:42047:1,2017-10-04T15:00:00Z,27.8966,-93.5973,4.0,10.10671064,71.77979994,11.97,'11111222,11111222,11111222' 
TABS,ioos:station:wmo:42047:1,2017-10-04T15:30:00Z,27.8966,-93.5973,4.0,9.829435386,72.41261651,11.7,'11111222,11111222,11111222' 
TABS,ioos:station:wmo:42047:1,2017-10-04T16:00:00Z,27.8966,-93.5973,4.0,9.749528194,69.46421662,11.71,'11111222,11111222,11111222' 
TABS,ioos:station:wmo:42047:1,2017-10-04T16:30:00Z,27.8966,-93.5973,4.0,9.517988233,61.4420332,10.77,'11111222,11111222,11111222' 
TABS,ioos:station:wmo:42047:1,2017-10-04T17:00:00Z,27.8966,-93.5973,4.0,9.443558651,66.80104282,11.31,'11111222,11111222,11111222' 
TABS,ioos:station:wmo:42047:1,2017-10-04T17:30:00Z,27.8966,-93.5973,4.0,9.116896402,59.18678608,10.81,'11111222,11111222,11111222' 
TABS,ioos:station:wmo:42047:1,2017-10-04T18:00:00Z,27.8966,-93.5973,4.0,8.336815939,61.40564113,9.81,'11111222,11111222,11111222' 
TABS,ioos:station:wmo:42047:1,2017-10-04T18:30:00Z,27.8966,-93.5973,4.0,8.972318541,70.73670088,10.78,'11111222,11111222,11111222' 